Location: Ffald-y-Brenin
(52.0833°N, 4.0000°W)
Time: 03:41:17
(UTC+00:00)

Cosmos 2360 Rocket - Pass Details

Date: 18 February 2020
Orbit: 835 x 843 km, 71.0° (Epoch: 09 April)

Event Time Altitude Azimuth Distance (km) Brightness Sun altitude
Exits shadow 04:09:55 20° 346° (NNW) 1,835 4.0 -30.5°
Drops below altitude 10° 04:12:54 10° 16° (NNE) 2,466 5.0 -30.0°
Sets 04:15:54 0° 31° (NNE) 3,402 6.1 -29.6°
